This is the latest recevied weather packets stored in our database for station/object OK1CBR-13. If no packets are shown the sender has not sent any weather packets the latest 10 day(s).
| Time | Temp. | Humidity | Pressure | Rain* | Wind** | Luminosity | Snow |
|---|---|---|---|---|---|---|---|
| 1777712852 | 20° C | 34% | 1025.5 hPa | - | - | - | - |
| 1777712252 | 19.44° C | 40% | 1025.7 hPa | - | - | - | - |
| 1777711652 | 19.44° C | 40% | 1025.7 hPa | - | - | - | - |
| 1777711052 | 18.89° C | 43% | 1025.8 hPa | - | - | - | - |
| 1777710452 | 18.33° C | 45% | 1025.9 hPa | - | - | - | - |
| 1777709852 | 17.78° C | 48% | 1026 hPa | - | - | - | - |
| 1777709252 | 17.22° C | 51% | 1026.1 hPa | - | - | - | - |
| 1777708652 | 16.67° C | 52% | 1026.2 hPa | - | - | - | - |
| 1777708052 | 15.56° C | 52% | 1026.3 hPa | - | - | - | - |
| 1777707452 | 15° C | 55% | 1026.4 hPa | - | - | - | - |
| 1777706852 | 14.44° C | 56% | 1026.5 hPa | - | - | - | - |
| 1777706252 | 13.89° C | 59% | 1026.5 hPa | - | - | - | - |
| 1777705652 | 13.33° C | 62% | 1026.5 hPa | - | - | - | - |
| 1777705053 | 12.78° C | 64% | 1026.6 hPa | - | - | - | - |
| 1777704452 | 12.22° C | 65% | 1026.6 hPa | - | - | - | - |
| 1777703853 | 11.67° C | 66% | 1026.6 hPa | - | - | - | - |
| 1777703252 | 11.11° C | 69% | 1026.7 hPa | - | - | - | - |
| 1777702653 | 10.56° C | 70% | 1026.6 hPa | - | - | - | - |
| 1777702053 | 10° C | 73% | 1026.5 hPa | - | - | - | - |
| 1777701453 | 8.89° C | 75% | 1026.6 hPa | - | - | - | - |
| 1777700853 | 8.33° C | 78% | 1026.6 hPa | - | - | - | - |
| 1777700252 | 8.33° C | 78% | 1026.6 hPa | - | - | - | - |
| 1777699653 | 7.78° C | 83% | 1026.5 hPa | - | - | - | - |
| 1777699053 | 7.22° C | 86% | 1026.5 hPa | - | - | - | - |
| 1777698453 | 6.67° C | 87% | 1026.5 hPa | - | - | - | - |
* Rain since midnight (hover to see other rain measurements)
** Current wind speed in m/s (hover to see current wind gust speed)